Weather History for Sitka, AK

Change the Weather History Date:

Saturday, December 14, 2013

  Actual Average Record
Temperature  
Mean Temperature 42 °F -  
Max Temperature 48 °F 40 °F 54 °F (1962)
Min Temperature 35 °F 32 °F 4 °F (1964)
Degree Days  
Heating Degree Days 24    
Moisture  
Dew Point 40 °F    
Average Humidity 87    
Maximum Humidity 96    
Minimum Humidity 51    
Precipitation  
Precipitation 1.86 in - - ()
Sea Level Pressure  
Sea Level Pressure 29.32 in    
Wind  
Wind Speed 19 mph (South)    
Max Wind Speed 34 mph    
Max Gust Speed 54 mph    
Visibility 5 miles    
Events Rain , Snow , Hail    
Averages and records for this station are not official NWS values.
T = Trace of Precipitation, MM = Missing Value Source: NWS Daily Summary

Daily Weather History Graph

Daily Weather History Graph

Search for Another Location

Airport:

Trip Planner

Search our weather history database for the weather conditions in past years. The results will help you decide how hot, cold, wet, or windy it might be!

Date:

Astronomy

Dec. 14, 2013 Rise Set
Actual Time 8:33 AM AKST 3:19 PM AKST
Civil Twilight 7:44 AM AKST 4:08 PM AKST
Nautical Twilight 6:53 AM AKST 4:59 PM AKST
Astronomical Twilight 6:06 AM AKST 5:46 PM AKST
Moon 2:07 PM AKST (12/14) 5:38 AM AKST (12/14)
Length of Visible Light 8h 24m
Length of Day
6h 45m
Waxing Gibbous, 94% of the Moon is Illuminated
Dec 14
Waxing Gibbous
Dec 17
Full
Dec 25
Last Quarter
Jan 1
New
Jan 7
First Quarter

Hourly Weather History & Observations

Time (AKST) Temp. Windchill Dew Point Humidity Pressure Visibility Wind Dir Wind Speed Gust Speed Precip Events Conditions
12:00 AM 46.9 °F - 45.0 °F 93% 29.42 in 6.0 mi South 20.7 mph 28.8 mph 0.00 in Rain Light Rain
12:23 AM 46.9 °F - 45.0 °F 93% 29.42 in 4.0 mi South 19.6 mph 32.2 mph 0.05 in Rain Rain
12:53 AM 46.9 °F - 45.0 °F 93% 29.42 in 2.0 mi South 20.7 mph 28.8 mph 0.11 in Rain Rain
1:33 AM 46.9 °F - 45.0 °F 93% 29.43 in 3.0 mi South 23.0 mph 34.5 mph 0.11 in Rain Rain
1:53 AM 46.9 °F - 45.0 °F 93% 29.43 in 3.0 mi South 19.6 mph 33.4 mph 0.16 in Rain Rain
1:56 AM 46.9 °F - 45.0 °F 93% 29.43 in 2.5 mi South 19.6 mph 32.2 mph 0.01 in Rain Rain
2:01 AM 46.9 °F - 45.0 °F 93% 29.43 in 2.0 mi South 19.6 mph 33.4 mph 0.02 in Rain Rain
2:06 AM 46.9 °F - 45.0 °F 93% 29.43 in 3.0 mi South 26.5 mph 34.5 mph 0.02 in Rain Light Rain
2:09 AM 46.9 °F - 45.0 °F 93% 29.43 in 5.0 mi South 25.3 mph 34.5 mph 0.02 in Rain Light Rain
2:17 AM 46.9 °F - 45.0 °F 93% 29.43 in 8.0 mi South 21.9 mph 33.4 mph 0.02 in   Overcast
2:43 AM 48.0 °F - 44.1 °F 86% 29.43 in 7.0 mi South 18.4 mph 29.9 mph 0.02 in   Overcast
3:02 AM 48.0 °F - 44.1 °F 86% 29.42 in 8.0 mi South 18.4 mph 28.8 mph 0.00 in Rain Light Rain
3:13 AM 48.0 °F - 44.1 °F 86% 29.42 in 9.0 mi South 16.1 mph 26.5 mph 0.00 in   Overcast
3:53 AM 46.9 °F - 45.0 °F 93% 29.40 in 6.0 mi South 16.1 mph 21.9 mph 0.02 in Rain Light Rain
4:25 AM 46.9 °F - 45.0 °F 93% 29.38 in 4.0 mi South 15.0 mph 26.5 mph 0.05 in Rain Rain
4:53 AM 46.9 °F - 45.0 °F 93% 29.36 in 5.0 mi South 17.3 mph 26.5 mph 0.11 in Rain Rain
5:30 AM 48.0 °F - 43.0 °F 83% 29.34 in 6.0 mi SSE 15.0 mph 21.9 mph 0.05 in Rain Rain
5:42 AM 48.0 °F - 43.0 °F 83% 29.32 in 9.0 mi SE 12.7 mph 24.2 mph 0.06 in Rain Light Rain
5:53 AM 46.9 °F - 43.0 °F 86% 29.31 in 10.0 mi ESE 8.1 mph - 0.06 in Rain Light Rain
6:17 AM 48.0 °F - 45.0 °F 89% 29.30 in 4.0 mi SSE 19.6 mph 25.3 mph 0.04 in Rain Rain
6:53 AM 48.0 °F - 45.0 °F 89% 29.28 in 8.0 mi South 13.8 mph - 0.10 in Rain Light Rain
7:53 AM 46.9 °F - 44.1 °F 90% 29.24 in 7.0 mi SSE 10.4 mph - 0.07 in Rain Light Rain
8:28 AM 46.9 °F - 44.1 °F 90% 29.22 in 7.0 mi SSE 8.1 mph - 0.02 in Rain Light Rain
8:38 AM 46.9 °F - 44.1 °F 90% 29.21 in 6.0 mi ESE 6.9 mph - 0.03 in Rain Light Rain
8:45 AM 46.0 °F 41.9 °F 44.1 °F 93% 29.20 in 7.0 mi ESE 8.1 mph - 0.04 in Rain Light Rain
8:53 AM 46.9 °F - 44.1 °F 90% 29.20 in 5.0 mi SE 10.4 mph - 0.06 in Rain Rain
9:53 AM 46.9 °F - 43.0 °F 86% 29.15 in 5.0 mi ESE 13.8 mph - 0.09 in Rain Rain
10:53 AM 46.0 °F 40.6 °F 43.0 °F 89% 29.10 in 4.0 mi ESE 11.5 mph - 0.07 in Rain Rain
11:19 AM 46.9 °F - 43.0 °F 86% 29.08 in 5.0 mi ESE 15.0 mph - 0.04 in Rain Light Rain
11:53 AM 46.0 °F 39.0 °F 42.1 °F 86% 29.06 in 4.0 mi SSE 17.3 mph - 0.16 in Rain Rain
12:53 PM 46.0 °F 40.2 °F 42.1 °F 86% 29.05 in 3.0 mi SE 12.7 mph - 0.16 in Rain Rain
1:34 PM 46.9 °F - 43.0 °F 86% 29.02 in 2.5 mi ESE 9.2 mph - 0.09 in Rain Rain
1:53 PM 46.9 °F - 45.0 °F 93% 29.02 in 2.5 mi South 20.7 mph 26.5 mph 0.14 in Rain Rain
2:22 PM 46.9 °F - 45.0 °F 93% 29.02 in 4.0 mi South 23.0 mph 33.4 mph 0.05 in Rain Rain
2:29 PM 46.9 °F - 45.0 °F 93% 29.02 in 2.5 mi South 23.0 mph 33.4 mph 0.06 in Rain Rain
2:53 PM 46.9 °F - 45.0 °F 93% 29.02 in 5.0 mi South 17.3 mph 27.6 mph 0.11 in Rain Light Rain
3:53 PM 46.0 °F 39.3 °F 45.0 °F 96% 29.03 in 5.0 mi South 16.1 mph 27.6 mph 0.10 in Rain Rain
4:27 PM 44.1 °F 33.3 °F 41.0 °F 89% 29.06 in 2.5 mi WSW 34.5 mph 43.7 mph 0.09 in Rain Rain
4:33 PM 43.0 °F 31.8 °F 39.9 °F 89% 29.07 in 4.0 mi WSW 34.5 mph 44.9 mph 0.10 in Rain Light Rain
4:53 PM 41.0 °F 29.5 °F 37.9 °F 89% 29.14 in 5.0 mi West 32.2 mph 54.1 mph 0.13 in Rain Light Rain
5:01 PM 41.0 °F 30.7 °F 37.9 °F 89% 29.17 in 5.0 mi West 25.3 mph 43.7 mph 0.01 in Rain Light Rain
5:11 PM 41.0 °F 30.0 °F 37.0 °F 86% 29.21 in 5.0 mi West 28.8 mph 42.6 mph 0.02 in Rain Rain
5:53 PM 39.0 °F 28.3 °F 36.0 °F 89% 29.33 in 5.0 mi West 24.2 mph 35.7 mph 0.08 in Rain Rain
6:53 PM 37.9 °F 27.3 °F 34.0 °F 86% 29.42 in 6.0 mi West 21.9 mph 31.1 mph 0.07 in Rain Light Rain
7:15 PM 41.0 °F 30.0 °F 30.0 °F 65% 29.42 in 10.0 mi WSW 28.8 mph 38.0 mph 0.01 in Rain Light Rain
7:53 PM 39.9 °F 28.8 °F 26.1 °F 58% 29.47 in 10.0 mi WSW 27.6 mph 40.3 mph 0.01 in   Overcast
8:53 PM 39.9 °F 29.2 °F 23.0 °F 51% 29.53 in 10.0 mi WSW 25.3 mph 38.0 mph 0.00 in   Overcast
9:48 PM 35.6 °F 25.2 °F 32.0 °F 87% 29.59 in 2.5 mi WSW 18.4 mph 39.1 mph 0.00 in Snow Light Snow
9:53 PM 35.1 °F 24.1 °F 33.1 °F 92% 29.59 in 2.0 mi WSW 19.6 mph - 0.01 in Snow Light Snow
10:01 PM 35.1 °F 24.1 °F 33.1 °F 92% 29.60 in 1.5 mi WSW 19.6 mph 31.1 mph 0.02 in Snow Light Snow
10:06 PM 35.1 °F 25.5 °F 32.0 °F 89% 29.60 in 2.0 mi SW 15.0 mph 26.5 mph 0.02 in Snow Light Snow
10:13 PM 37.0 °F 28.1 °F 32.0 °F 82% 29.60 in 9.0 mi SW 15.0 mph - 0.02 in Rain Light Rain
10:50 PM 37.4 °F - 28.4 °F 70% 29.62 in 2.5 mi North - - 0.04 in Hail Hail
10:53 PM 36.0 °F 29.0 °F 30.9 °F 82% 29.62 in 2.0 mi West 9.2 mph 35.7 mph 0.04 in Hail Hail
10:58 PM 37.9 °F 30.5 °F 30.9 °F 76% 29.63 in 3.0 mi SW 11.5 mph - 0.00 in   Overcast
11:53 PM 39.0 °F 31.4 °F 30.0 °F 70% 29.64 in 10.0 mi South 12.7 mph - 0.00 in   Mostly Cloudy